Meteopurmerend
purmerend
Purmerend - Baaienwijk



My webcam  My webcam


Onweer radar Meer informatie blitzortung!


Regen radar Meer informatie rain snow radar


Bezoek onze andere website:

CandyAppleRed WebdesignWebdesign Purmerend Candy Apple Red

MeteopurmerendBlog

Template documentation
and downloads



Het weer levert geen direct gevaar op.    Er zijn geen waarschuwingen afgegeven.

15 daagse weersverwachting Drammen (NO)

  • Overzicht
  • Per uur
  • 15 dagen
  • Extra
  • Vergelijk
  • Kaarten
  • Dagkaart
  • Meer »
  • Info
  • Statistieken
  • Directe link
    Temp 6h Neerslag Wind  
 07:16     19:06    Daglengte: 11:50 Vandaag
20:00
12°
 
1
 07:18     19:03    Daglengte: 11:45 Morgen
02:00
10°
 
1
08:00
10°
 
2
14:00
12°
 
3
20:00
13°
17.1 mm
4
 07:21     19:00    Daglengte: 11:39 Dinsdag 28 Sep
02:00
12°
36.6 mm
4
08:00
12°
55.1 mm
3
14:00
16°
 
1
20:00
11°
 
1
 07:23     18:57    Daglengte: 11:34 Woensdag 29 Sep
02:00
 
1
08:00
10°
14.4 mm
2
14:00
11°
14.7 mm
2
Locatie info
Region: Buskerud
Latitude: 59.7475°N
Longitude: 10.1840°E
11 masl
Postcode: 3018
Temp/Neerslag /Baro Onweer/Dauwpunt
    Temp Baro 1h Neerslag Dauwpunt Wind UV Bewolking  
 07:16     19:06    Daglengte: 11:50 Vandaag
20:00
12°
1019.7 hPa   10.5°
1
Windvlaag: 3.2 m/s
57%
21:00
11°
1019.8 hPa   10.3°
1
Windvlaag: 2.1 m/s
79%
22:00
11°
1020.0 hPa   10.0°
1
Windvlaag: 0.8 m/s
80%
23:00
11°
1020.1 hPa   10.3°
1
Windvlaag: 0.8 m/s
73%
 07:18     19:03    Daglengte: 11:45 Morgen
00:00
10°
1020.2 hPa   10.1°
1
Windvlaag: 0.1 m/s
59%
01:00
10°
1020.0 hPa   10.1°
1
Windvlaag: -0.4 m/s
52%
02:00
10°
1020.0 hPa   9.8°
1
Windvlaag: -0.3 m/s
56%
03:00
10°
1020.1 hPa
18%
9.4°
1
Windvlaag: -0.5 m/s
80%
04:00
11°
1019.8 hPa   9.5°
1
Windvlaag: -0.6 m/s
83%
05:00
10°
1019.7 hPa
69%
9.5°
1
Windvlaag: -0.6 m/s
83%
06:00
10°
1019.4 hPa
78%
9.4°
1
Windvlaag: -0.5 m/s
86%
07:00
10°
1019.2 hPa
78%
9.4°
2
Windvlaag: -0.9 m/s
86%
08:00
10°
1019.1 hPa
78%
9.6°
2
Windvlaag: -1.6 m/s
86%
09:00
11°
1019.4 hPa
17%
9.9°
2
Windvlaag: -1.5 m/s
86%
10:00
11°
1019.4 hPa
15%
10.2°
2
Windvlaag: -1.3 m/s
81%
11:00
11°
1019.4 hPa
15%
10.5°
3
Windvlaag: -0.5 m/s
86%
12:00
11°
1019.1 hPa
16%
10.9°
3
Windvlaag: -1.6 m/s
86%
13:00
12°
1018.6 hPa
18%
11.0°
3
Windvlaag: -1.4 m/s
70%
14:00
12°
1018.1 hPa
39%
11.2°
3
Windvlaag: -0.3 m/s
83%
15:00
12°
1017.2 hPa
81%
11.7°
4
Windvlaag: -0.8 m/s
84%
16:00
13°
1016.5 hPa 1.8 mm
82%
11.7°
2
Windvlaag: -1.8 m/s
86%
17:00
13°
1015.9 hPa 2.6 mm
82%
11.7°
3
Windvlaag: -0.6 m/s
86%
18:00
13°
1015.1 hPa 2.5 mm
82%
12.0°
3
Windvlaag: -0.3 m/s
86%
19:00
13°
1014.8 hPa 4.7 mm
82%
12.2°
3
Windvlaag: -0.2 m/s
86%
20:00
13°
1014.3 hPa 5.5 mm
82%
12.0°
4
Windvlaag: 0.5 m/s
86%
21:00
13°
1014.1 hPa 5.3 mm
82%
12.3°
4
Windvlaag: 4.3 m/s
86%
22:00
13°
1013.8 hPa 6.0 mm
82%
12.4°
5
Windvlaag: 6.4 m/s
86%
23:00
13°
1013.5 hPa 6.0 mm
82%
12.2°
5
Windvlaag: 6.5 m/s
86%
 07:21     19:00    Daglengte: 11:39 Dinsdag 28 Sep
00:00
13°
1013.5 hPa 7.7 mm
82%
11.9°
5
Windvlaag: 6.6 m/s
86%
01:00
12°
1013.5 hPa 5.6 mm
82%
11.7°
4
Windvlaag: 6.5 m/s
86%
02:00
12°
1013.4 hPa 5.9 mm
82%
11.6°
4
Windvlaag: 6 m/s
86%
03:00
12°
1013.1 hPa 7.2 mm
82%
11.6°
4
Windvlaag: 5 m/s
86%
04:00
12°
1013.0 hPa 8.5 mm
82%
11.6°
4
Windvlaag: 5 m/s
86%
05:00
12°
1012.9 hPa 9.9 mm
82%
11.7°
4
Windvlaag: 5.4 m/s
86%
06:00
12°
1013.1 hPa 10.0 mm
82%
11.7°
4
Windvlaag: 5.4 m/s
86%
07:00
12°
1013.3 hPa 10.5 mm
82%
11.7°
3
Windvlaag: 7.4 m/s
86%
08:00
12°
1014.0 hPa 9.0 mm
76%
12.0°
3
Windvlaag: 7.2 m/s
86%
09:00
12°
1014.8 hPa
55%
12.3°
3
Windvlaag: 5.9 m/s
86%
10:00
13°
1015.7 hPa
15%
12.7°
2
Windvlaag: 5.7 m/s
70%
11:00
14°
1016.3 hPa
14%
13.1°
2
Windvlaag: 4.3 m/s
22%
12:00
15°
1016.9 hPa
14%
13.2°
2
Windvlaag: 3 m/s
21%
13:00
15°
1017.7 hPa
17%
12.2°
2
Windvlaag: 2.7 m/s
17%
14:00
16°
1018.3 hPa
16%
8.3°
1
Windvlaag: 2.9 m/s
11%
15:00
16°
1018.6 hPa
15%
5.5°
1
Windvlaag: 3 m/s
11%
16:00
16°
1018.9 hPa
18%
4.5°
2
Windvlaag: 2.3 m/s
8%
17:00
16°
1019.0 hPa
22%
6.8°
2
Windvlaag: 1.1 m/s
7%
18:00
15°
1019.6 hPa
26%
8.4°
2
Windvlaag: 1 m/s
3%
19:00
13°
1020.2 hPa
21%
7.7°
1
Windvlaag: 1.3 m/s
3%
20:00
11°
1020.9 hPa
21%
7.3°
1
Windvlaag: 1.5 m/s
4%
21:00
10°
1021.4 hPa
21%
7.2°
1
Windvlaag: 2.2 m/s
11%
22:00
1022.0 hPa
21%
6.6°
1
Windvlaag: 1.4 m/s
21%
23:00
Voelt als: 8.7°
1022.5 hPa
21%
6.4°
1
Windvlaag: 0.6 m/s
31%
 07:23     18:57    Daglengte: 11:34 Woensdag 29 Sep
00:00
Voelt als: 8.4°
1022.9 hPa
21%
6.2°
1
Windvlaag: 0.3 m/s
43%
01:00
Voelt als: 8.1°
1023.1 hPa
21%
6.7°
1
Windvlaag: 0.1 m/s
49%
02:00
Voelt als: 8.2°
1023.1 hPa
21%
7.8°
1
Windvlaag: 0.1 m/s
94%
03:00
Voelt als: 8.6°
1023.2 hPa
22%
8.6°
1
Windvlaag: -0.1 m/s
96%
04:00
1023.1 hPa
22%
9.1°
1
Windvlaag: -0.5 m/s
98%
05:00
Voelt als: 8.9°
1022.9 hPa
25%
9.2°
1
Windvlaag: -0.8 m/s
99%
06:00
Voelt als: 9.4°
1022.6 hPa 14.4 mm
30%
9.5°
1
Windvlaag: -0.7 m/s
100%
07:00
10°
Voelt als: 9.7°
1022.5 hPa
87%
9.7°
1
Windvlaag: -0.6 m/s
100%
08:00
10°
Voelt als: 9.4°
1022.4 hPa
84%
9.8°
2
Windvlaag: -1.4 m/s
96%
09:00
10°
Voelt als: 9.2°
1022.1 hPa
28%
10.0°
2
Windvlaag: -1.8 m/s
96%
10:00
10°
1021.8 hPa
22%
9.8°
1
Windvlaag: -2.6 m/s
89%
11:00
11°
1021.4 hPa
22%
9.8°
2
Windvlaag: -2.3 m/s
88%
12:00
11°
1020.8 hPa
38%
9.9°
2
Windvlaag: -1.8 m/s
90%
13:00
11°
1020.3 hPa
42%
10.1°
2
Windvlaag: -1.6 m/s
95%
14:00
11°
1020.0 hPa 14.7 mm
87%
10.7°
2
Windvlaag: -1.6 m/s
99%
15:00
11°
1019.2 hPa 14.8 mm
94%
10.5°
2
Windvlaag: 2.6 m/s
100%
16:00
12°
1018.7 hPa 15.0 mm
94%
11.0°
1
Windvlaag: 2 m/s
96%
17:00
12°
1018.4 hPa 15.2 mm
100%
11.2°
2
Windvlaag: 1.9 m/s
98%
18:00
12°
1018.1 hPa 15.1 mm
100%
11.3°
2
Windvlaag: 2.9 m/s
99%
19:00
12°
1017.9 hPa 15.1 mm
100%
11.2°
2
Windvlaag: 2.2 m/s
100%
Temp/Neerslag /Baro Onweer/Dauwpunt
    Temp Baro Neerslag Dauwpunt Wind Bewolking  
 07:16     19:06    Daglengte: 11:50 Vandaag
20:00
12°
1019.7 hPa   10.5°
1
57%
23:00
11°
1020.1 hPa   10.3°
1
73%
 07:18     19:03    Daglengte: 11:45 Morgen
02:00
10°
1020.0 hPa   9.8°
1
56%
05:00
10°
1019.7 hPa   9.5°
1
83%
08:00
10°
1019.1 hPa   9.6°
2
86%
11:00
11°
1019.4 hPa   10.5°
3
86%
14:00
12°
1018.1 hPa   11.2°
3
83%
17:00
13°
1015.9 hPa 4.4 mm 11.7°
3
86%
20:00
13°
1014.3 hPa 12.6 mm 12.0°
4
86%
23:00
13°
1013.5 hPa 17.3 mm 12.2°
5
86%
 07:21     19:00    Daglengte: 11:39 Dinsdag 28 Sep
02:00
12°
1013.4 hPa 19.2 mm 11.6°
4
86%
05:00
12°
1012.9 hPa 25.6 mm 11.7°
4
86%
08:00
12°
1014.0 hPa 29.5 mm 12.0°
3
86%
11:00
14°
1016.3 hPa   13.1°
2
22%
14:00
16°
1018.3 hPa   8.3°
1
11%
17:00
16°
1019.0 hPa   6.8°
2
7%
20:00
11°
1020.9 hPa   7.3°
1
4%
23:00
Voelt als: 8.7°
1022.5 hPa   6.4°
1
31%
 07:23     18:57    Daglengte: 11:34 Woensdag 29 Sep
02:00
Voelt als: 8.2°
1023.1 hPa   7.8°
1
94%
05:00
Voelt als: 8.9°
1022.9 hPa   9.2°
1
99%
08:00
10°
Voelt als: 9.4°
1022.4 hPa 14.4 mm 9.8°
2
96%
11:00
11°
1021.4 hPa   9.8°
2
88%
14:00
11°
1020.0 hPa 14.7 mm 10.7°
2
99%
17:00
12°
1018.4 hPa 45.0 mm 11.2°
2
98%
20:00
11°
1018.0 hPa 45.5 mm 11.3°
2
99%
23:00
10°
1021.3 hPa 49.0 mm 9.4°
1
1%
 07:25     18:54    Daglengte: 11:29 Donderdag 30 Sep
02:00
10°
Voelt als: 9.8°
1020.6 hPa 49.5 mm 9.5°
1
1%
05:00
11°
1018.7 hPa 51.9 mm 10.2°
2
1%
08:00
10°
1017.2 hPa 58.0 mm 9.7°
1
1%
11:00
10°
Voelt als: 9.6°
1016.5 hPa 62.9 mm 9.5°
1
1%
14:00
11°
1016.5 hPa 65.2 mm 8.3°
1
1%
17:00
10°
1016.0 hPa 66.5 mm 8.4°
1
1%
20:00
Voelt als: 9.0°
1016.7 hPa 67.1 mm 8.5°
1
1%
23:00
Voelt als: 6.1°
1017.6 hPa 67.1 mm 6.7°
2
1%
 07:28     18:51    Daglengte: 11:23 Vrijdag 01 Okt
02:00
Voelt als: 6.6°
1018.2 hPa 67.2 mm 7.1°
3
1%
05:00
Voelt als: 7.9°
1017.3 hPa 68.6 mm 8.8°
2
1%
08:00
10°
Voelt als: 7.8°
1017.3 hPa 69.2 mm 9.0°
4
1%
11:00
10°
Voelt als: 8.4°
1017.5 hPa 69.7 mm 9.3°
3
1%
14:00
10°
1016.7 hPa 70.5 mm 9.7°
4
1%
17:00
10°
1015.4 hPa 74.0 mm 9.5°
5
1%
20:00
10°
Voelt als: 7.7°
1015.4 hPa 76.2 mm 9.0°
5
1%
23:00
10°
1014.4 hPa 78.7 mm 9.5°
4
1%
 07:30     18:48    Daglengte: 11:18 Zaterdag 02 Okt
02:00
10°
1012.7 hPa 80.4 mm 10.2°
3
1%
05:00
10°
Voelt als: 8.6°
1011.3 hPa 83.7 mm 9.6°
3
1%
08:00
10°
Voelt als: 9.2°
1010.1 hPa 86.4 mm 9.6°
2
1%
11:00
11°
1009.9 hPa 87.8 mm 10.8°
1
1%
14:00
12°
1009.8 hPa 88.4 mm 10.9°
2
1%
17:00
12°
1010.1 hPa 88.5 mm 10.3°
2
1%
20:00
Voelt als: 8.0°
1010.9 hPa 88.5 mm 7.6°
1
1%
23:00
Voelt als: 6.7°
1011.5 hPa 88.5 mm 6.2°
1
0%
 07:32     18:45    Daglengte: 11:13 Zondag 03 Okt
02:00
Voelt als: 5.5°
1012.1 hPa 88.5 mm 4.9°
1
0%
05:00
Voelt als: 4.6°
1011.8 hPa 88.5 mm 4.5°
1
0%
08:00
Voelt als: 5.1°
1012.0 hPa 88.5 mm 4.6°
1
0%
11:00
10°
Voelt als: 7.3°
1010.5 hPa 88.7 mm 7.2°
4
1%
14:00
Voelt als: 5.4°
1008.7 hPa 90.0 mm 7.4°
6
1%
17:00
10°
Voelt als: 6.4°
1005.0 hPa   8.4°
7
1%
20:00
10°
1001.7 hPa 193.7 mm 9.1°
6
1%
 07:35     18:42    Daglengte: 11:07 Maandag 04 Okt
02:00
12°
992.1 hPa 230.5 mm 11.7°
6
1%
08:00
10°
Voelt als: 7.6°
992.4 hPa 240.1 mm 8.2°
4
1%
14:00
12°
993.2 hPa 240.2 mm 7.6°
4
1%
20:00
Voelt als: 7.0°
990.9 hPa 240.2 mm 7.2°
2
1%
 07:37     18:39    Daglengte: 11:02 Dinsdag 05 Okt
02:00
Voelt als: 8.0°
986.8 hPa 244.8 mm 7.8°
1
1%
08:00
Voelt als: 6.4°
984.5 hPa 259.8 mm 6.2°
1
1%
14:00
10°
984.3 hPa 267.9 mm 6.4°
1
1%
20:00
Voelt als: 6.8°
983.5 hPa 269.7 mm 6.4°
2
1%
 07:40     18:36    Daglengte: 10:56 Woensdag 06 Okt
02:00
Voelt als: 3.3°
986.5 hPa 270.2 mm 3.9°
2
0%
08:00
Voelt als: 2.3°
989.4 hPa 270.2 mm 2.3°
2
1%
14:00
12°
1006.7 hPa 3.8 mm 8.4°
2
82%
20:00
Voelt als: 8.7°
1007.3 hPa 2.0 mm 7.7°
2
80%
 07:42     18:33    Daglengte: 10:51 Donderdag 07 Okt
02:00
1008.7 hPa 0.4 mm 6.3°
1
60%
08:00
1009.4 hPa 0.5 mm 6.1°
0
65%
14:00
12°
1009.6 hPa 1.3 mm 8.2°
2
72%
20:00
Voelt als: 9.2°
1010.0 hPa 1.3 mm 7.8°
1
78%
 07:44     18:30    Daglengte: 10:46 Vrijdag 08 Okt
02:00
1011.1 hPa 0.8 mm 7.2°
1
73%
08:00
1011.1 hPa 0.8 mm 6.5°
1
70%
14:00
12°
1011.0 hPa 1.5 mm 8.3°
1
71%
20:00
1011.5 hPa 1.3 mm 7.3°
1
68%
 07:47     18:27    Daglengte: 10:40 Zaterdag 09 Okt
02:00
1012.4 hPa 0.7 mm 6.3°
1
67%
08:00
1012.9 hPa 0.4 mm 5.3°
1
69%
14:00
11°
1013.6 hPa 0.5 mm 6.6°
1
62%
20:00
Voelt als: 8.4°
1014.2 hPa 0.6 mm 6.2°
1
66%
 07:49     18:24    Daglengte: 10:35 Zondag 10 Okt
02:00
Voelt als: 7.5°
1014.7 hPa 0.2 mm 5.8°
0
68%
08:00
Voelt als: 6.9°
1014.0 hPa 0.6 mm 5.5°
0
73%
14:00
11°
1013.3 hPa 1.2 mm 6.9°
1
79%
20:00
Voelt als: 8.4°
1012.9 hPa 1.1 mm 6.8°
1
75%
 07:52     18:21    Daglengte: 10:29 Maandag 11 Okt
02:00
1013.1 hPa 0.1 mm 5.9°
1
68%
08:00
1013.4 hPa 0.2 mm 5.3°
0
61%
14:00
11°
1013.7 hPa 0.2 mm 6.5°
1
69%
  CAPE Lifted Index Hail Supercell Tornado SRH 3km CL BTM PRES CL TOP PRES Swiss DWD icon SMHI TS
 07:16     19:06    Daglengte: 11:50 Vandaag
20:00 0 J/kg 7.6 K 0 % 0 % 0 % 0 m²/s² 0 0 10.72 3
21:00 0 J/kg 7.6 K 0 % 0 % 0 % 0 m²/s² 0 0 11.26 3
22:00 0 J/kg 7.8 K 0 % 0 % 0 % 0 m²/s² 0 0 11.76 3
23:00 0 J/kg 8.1 K 0 % 0 % 0 % 0 m²/s² 0 0 10.74 3
 07:18     19:03    Daglengte: 11:45 Morgen
00:00 0 J/kg 8.1 K 0 % 0 % 0 % 0 m²/s² 0 0 9.18 2
01:00 0 J/kg 6.8 K 0 % 0 % 0 % 0 m²/s² 0 0 7.85 2
02:00 0 J/kg 4.9 K 0 % 0 % 0 % 0 m²/s² 0 0 6.43 3
03:00 0 J/kg 4.8 K 0 % 0 % 0 % 0 m²/s² 0 0 6.51 3
04:00 0 J/kg 5.1 K 0 % 0 % 0 % 0 m²/s² 0 0 6.99 3
05:00 0 J/kg 4.9 K 0 % 0 % 0 % 0 m²/s² 0 0 6.85 3
06:00 0 J/kg 5.4 K 0 % 0 % 0 % 0 m²/s² 0 0 7.89 61
07:00 0 J/kg 5.3 K 0 % 0 % 0 % 0 m²/s² 0 0 8.51 3
08:00 0 J/kg 5.4 K 0 % 0 % 0 % 0 m²/s² 0 0 8.28 61
09:00 0 J/kg 5.1 K 0 % 0 % 0 % 0 m²/s² 0 0 7.29 3
10:00 0 J/kg 4.7 K 0 % 0 % 0 % 0 m²/s² 0 0 4.97 3
11:00 0 J/kg 4.1 K 0 % 0 % 0 % 0 m²/s² 0 0 4.13 3
12:00 0 J/kg 3.7 K 0 % 0 % 0 % 0 m²/s² 0 0 3.79 3
13:00 0 J/kg 2.6 K 0 % 0 % 0 % 0 m²/s² 0 0 3.5 3
14:00 0 J/kg 1.4 K 0 % 0 % 0 % 0 m²/s² 0 0 1.58 3
15:00 0 J/kg 1.2 K 0 % 0 % 0 % 0 m²/s² 0 0 1.29 3
16:00 0 J/kg 1.5 K 0 % 0 % 0 % 0 m²/s² 0 0 1.62 61
17:00 0 J/kg 2.0 K 0 % 0 % 0 % 0 m²/s² 0 0 2 63
18:00 0 J/kg 2.0 K 0 % 0 % 0 % 0 m²/s² 0 0 2.03 61
19:00 0 J/kg 2.3 K 0 % 0 % 0 % 0 m²/s² 0 0 2.33 63
20:00 0 J/kg 2.5 K 0 % 0 % 0 % 0 m²/s² 0 0 2.5 63
21:00 0 J/kg 2.9 K 0 % 0 % 0 % 0 m²/s² 0 0 2.93 63
22:00 1 J/kg 2.4 K 0 % 0 % 0 % 0 m²/s² 0 0 2.4 63
23:00 0 J/kg 2.0 K 0 % 0 % 0 % 0 m²/s² 0 0 2.03 61
 07:21     19:00    Daglengte: 11:39 Dinsdag 28 Sep
00:00 1 J/kg 2.0 K 0 % 0 % 0 % 0 m²/s² 0 0 2.03 63
01:00 2 J/kg 1.9 K 0 % 0 % 0 % 0 m²/s² 0 0 1.99 61
02:00 4 J/kg 3.5 K 0 % 0 % 0 % 0 m²/s² 0 0 3.5 61
03:00 2 J/kg 3.2 K 0 % 0 % 0 % 0 m²/s² 0 0 3.23 61
04:00 2 J/kg 4.1 K 0 % 0 % 0 % 0 m²/s² 0 0 4.13 61
05:00 1 J/kg 4.7 K 0 % 0 % 0 % 0 m²/s² 0 0 4.79 63
06:00 1 J/kg 4.2 K 0 % 0 % 0 % 0 m²/s² 0 0 4.29 61
07:00 1 J/kg 5.1 K 0 % 0 % 0 % 0 m²/s² 0 0 5.22 61
08:00 4 J/kg 6.2 K 0 % 0 % 0 % 0 m²/s² 0 0 6.44 61
09:00 29 J/kg 5.7 K 0 % 0 % 0 % 0 m²/s² 0 0 12.06 3
10:00 55 J/kg 5.0 K 0 % 0 % 0 % 0 m²/s² 0 0 13.7 3
11:00 35 J/kg 4.8 K 0 % 0 % 0 % 0 m²/s² 0 0 13.47 2
12:00 33 J/kg 4.4 K 0 % 0 % 0 % 0 m²/s² 0 0 13.46 2
13:00 97 J/kg 3.6 K 0 % 0 % 0 % 0 m²/s² 0 0 12.63 2
14:00 126 J/kg 3.3 K 0 % 0 % 0 % 0 m²/s² 0 0 12.33 2
15:00 97 J/kg 3.4 K 0 % 0 % 0 % 0 m²/s² 0 0 12.43 2
16:00 41 J/kg 4.5 K 0 % 0 % 0 % 0 m²/s² 0 0 13.14 2
17:00 1 J/kg 6.5 K 0 % 0 % 0 % 0 m²/s² 0 0 14.48 1
18:00 0 J/kg 7.1 K 0 % 0 % 0 % 0 m²/s² 0 0 14.48 0
19:00 0 J/kg 7.7 K 0 % 0 % 0 % 0 m²/s² 0 0 14.84 0
20:00 0 J/kg 7.8 K 0 % 0 % 0 % 0 m²/s² 0 0 14.46 0
21:00 0 J/kg 8.0 K 0 % 0 % 0 % 0 m²/s² 0 0 14.45 0
22:00 0 J/kg 7.9 K 0 % 0 % 0 % 0 m²/s² 0 0 14.17 0
23:00 0 J/kg 7.9 K 0 % 0 % 0 % 0 m²/s² 0 0 14.14 2
 07:23     18:57    Daglengte: 11:34 Woensdag 29 Sep
00:00 0 J/kg 7.8 K 0 % 0 % 0 % 0 m²/s² 0 0 13.86 45
01:00 0 J/kg 7.3 K 0 % 0 % 0 % 0 m²/s² 0 0 13.18 45
02:00 0 J/kg 7.5 K 0 % 0 % 0 % 0 m²/s² 0 0 13.08 45
03:00 0 J/kg 7.1 K 0 % 0 % 0 % 0 m²/s² 0 0 12.65 3
04:00 1 J/kg 7.1 K 0 % 0 % 0 % 0 m²/s² 0 0 12.65 3
05:00 1 J/kg 7.1 K 0 % 0 % 0 % 0 m²/s² 0 0 12.5 3
06:00 1 J/kg 7.0 K 0 % 0 % 0 % 0 m²/s² 0 0 12.25 3
07:00 1 J/kg 7.1 K 0 % 0 % 0 % 0 m²/s² 0 0 11.69 3
08:00 1 J/kg 7.5 K 0 % 0 % 0 % 0 m²/s² 0 0 11.55 3
09:00 2 J/kg 7.5 K 0 % 0 % 0 % 0 m²/s² 0 0 9.78 3
10:00 3 J/kg 7.0 K 0 % 0 % 0 % 0 m²/s² 0 0 9.88 3
11:00 2 J/kg 6.2 K 0 % 0 % 0 % 0 m²/s² 0 0 9.68 3
12:00 0 J/kg 4.8 K 0 % 0 % 0 % 0 m²/s² 0 0 6.63 3
13:00 0 J/kg 3.9 K 0 % 0 % 0 % 0 m²/s² 0 0 7.77 3
14:00 1 J/kg 3.5 K 0 % 0 % 0 % 0 m²/s² 0 0 7.79 80
15:00 1 J/kg 2.9 K 0 % 0 % 0 % 0 m²/s² 0 0 7.64 80
16:00 0 J/kg 2.8 K 0 % 0 % 0 % 0 m²/s² 0 0 7.54 80
17:00 9 J/kg 2.6 K 0 % 0 % 0 % 0 m²/s² 0 0 6.59 80
18:00 35 J/kg 2.5 K 0 % 0 % 0 % 0 m²/s² 0 0 5.98 80
19:00 25 J/kg 2.3 K 0 % 0 % 0 % 0 m²/s² 0 0 5.45 80
Temp Baro Wind Neerslag
  EWN Forecast EWN WRFDA DWD ICON FMI HIRLAM MET Norway GFSWXSIM
 07:16     19:06    Daglengte: 11:50 Vandaag
20:00 11.9° 1019.7 hPa 1.4 m/s 0.0 mm 11.4° 1018.0 hPa 2.5 m/s 0.0 mm 12.2° 1019.5 hPa 1.4 m/s -2.0 mm 12.1° 1019.9 hPa 0.8 m/s 0.0 mm 10.8° 1019.8 hPa 1.5 m/s
23:00 10.6° 1020.1 hPa 0.8 m/s 0.0 mm 9.6° 1018.6 hPa 1.9 m/s 0.0 mm 10.9° 1019.7 hPa 0.9 m/s 0.0 mm 10.9° 1020.6 hPa 0.8 m/s 0.0 mm 9.8° 1020.8 hPa 0.7 m/s
 07:18     19:03    Daglengte: 11:45 Morgen
02:00 10.3° 1020.0 hPa 1.0 m/s 0.0 mm 10.4° 1018.3 hPa 2.2 m/s 0.0 mm 10.2° 1020.1 hPa 0.7 m/s 0.0 mm 11.1° 1020.1 hPa 1.3 m/s 0.0 mm 9.2° 1020.8 hPa 0.9 m/s
05:00 10.4° 1019.7 hPa 1.3 m/s 0.0 mm 10.8° 1018.3 hPa 1.9 m/s 0.1 mm 11.1° 1019.8 hPa 1.1 m/s 0.0 mm 10.2° 1019.6 hPa 2.3 m/s 0.0 mm 10.7° 1020.5 hPa 0.9 m/s
08:00 10.2° 1019.1 hPa 2.1 m/s 0.0 mm 10.8° 1018.0 hPa 2.4 m/s 0.2 mm 11.3° 1019.2 hPa 1.6 m/s 0.3 mm 10.1° 1019.1 hPa 2.1 m/s 0.0 mm 10.6° 1020.4 hPa 1.3 m/s
11:00 11.1° 1019.4 hPa 2.6 m/s 0.0 mm 12.0° 1018.0 hPa 3.9 m/s 0.4 mm 11.7° 1019.5 hPa 3.2 m/s 0.0 mm 11.3° 1018.9 hPa 2.4 m/s 0.0 mm 11.5° 1020.4 hPa 1.6 m/s
14:00 12.0° 1018.1 hPa 3.3 m/s 0.0 mm 15.2° 1016.1 hPa 2.9 m/s 3.7 mm 12.3° 1018.2 hPa 3.9 m/s 0.0 mm 12.0° 1017.6 hPa 3.6 m/s 0.0 mm 12.3° 1019.2 hPa 2.3 m/s
17:00 12.5° 1015.9 hPa 2.7 m/s 4.4 mm 15.6° 1014.5 hPa 4.7 m/s 10.3 mm 12.6° 1015.9 hPa 2.5 m/s 4.2 mm 13.1° 1015.2 hPa 3.4 m/s 0.0 mm 12.4° 1017.0 hPa 1.3 m/s
20:00 13.2° 1014.3 hPa 4.0 m/s 12.6 mm 15.6° 1013.6 hPa 4.2 m/s 16.4 mm 13.3° 1014.3 hPa 4.4 m/s 16.3 mm 13.9° 1013.5 hPa 4.8 m/s 0.0 mm 13.6° 1015.0 hPa 2.6 m/s
23:00 13.1° 1013.5 hPa 4.9 m/s 17.3 mm 13.2° 1014.2 hPa 4.8 m/s 38.6 mm 13.1° 1013.4 hPa 4.3 m/s 7.4 mm 13.4° 1013.4 hPa 5.0 m/s 0.0 mm 14.2° 1014.9 hPa 4.1 m/s
 07:21     19:00    Daglengte: 11:39 Dinsdag 28 Sep
02:00 12.1° 1013.4 hPa 4.0 m/s 19.2 mm 11.8° 1013.7 hPa 5.3 m/s 60.3 mm 12.2° 1013.3 hPa 3.7 m/s 6.0 mm 12.7° 1013.2 hPa 4.5 m/s 0.0 mm 12.9° 1014.8 hPa 3.4 m/s
05:00 11.8° 1012.9 hPa 4.0 m/s 25.6 mm 11.3° 1013.0 hPa 4.2 m/s 98.3 mm 11.8° 1013.0 hPa 2.7 m/s 7.1 mm 13.0° 1013.1 hPa 4.4 m/s 0.0 mm 12.0° 1014.3 hPa 2.7 m/s
08:00 12.2° 1014.0 hPa 3.1 m/s 29.5 mm 12.2° 1013.5 hPa 2.3 m/s 121.4 mm 12.1° 1014.2 hPa 1.8 m/s 3.7 mm 13.1° 1014.9 hPa 3.3 m/s 0.0 mm 12.6° 1015.7 hPa 1.4 m/s
11:00 13.8° 1016.3 hPa 2.0 m/s 0.0 mm 14.6° 1015.9 hPa 3.5 m/s 128.0 mm 14.1° 1016.4 hPa 1.1 m/s 0.0 mm 13.9° 1017.4 hPa 1.9 m/s 0.0 mm 13.7° 1018.4 hPa 2.4 m/s
14:00 15.6° 1018.3 hPa 1.5 m/s 0.0 mm 15.9° 1017.5 hPa 2.7 m/s 128.2 mm 15.4° 1018.4 hPa 2.2 m/s 0.0 mm 17.5° 1018.8 hPa 1.1 m/s 0.0 mm 14.1° 1019.6 hPa 2.3 m/s
17:00 16.1° 1019.0 hPa 1.8 m/s 0.0 mm 17.0° 1018.4 hPa 2.8 m/s 128.3 mm 16.1° 1019.3 hPa 2.1 m/s 0.0 mm 14.0° 1020.7 hPa 1.8 m/s
20:00 11.1° 1020.9 hPa 1.1 m/s 0.0 mm 11.4° 1020.0 hPa 2.8 m/s 128.3 mm 11.1° 1021.2 hPa 1.0 m/s 0.0 mm 11.9° 1022.1 hPa 1.4 m/s
23:00 8.7° 1022.5 hPa 1.0 m/s 0.0 mm 9.5° 1021.4 hPa 2.0 m/s 128.3 mm 8.7° 1022.8 hPa 0.8 m/s 0.0 mm 9.7° 1023.5 hPa 1.1 m/s
 07:23     18:57    Daglengte: 11:34 Woensdag 29 Sep
02:00 8.5° 1023.1 hPa 1.3 m/s 0.0 mm 9.1° 1021.7 hPa 1.8 m/s 128.3 mm 8.6° 1023.6 hPa 1.0 m/s 0.0 mm 8.9° 1023.8 hPa 1.0 m/s
05:00 9.2° 1022.9 hPa 1.3 m/s 0.0 mm 9.2° 1021.7 hPa 2.1 m/s 128.3 mm 9.2° 1023.1 hPa 1.0 m/s 0.0 mm 9.3° 1023.5 hPa 0.7 m/s
08:00 9.8° 1022.4 hPa 1.6 m/s 14.4 mm 9.1° 1021.5 hPa 2.0 m/s 128.3 mm 10.0° 1022.5 hPa 1.5 m/s 0.0 mm 9.9° 1023.4 hPa 0.7 m/s
11:00 10.8° 1021.4 hPa 2.3 m/s 0.0 mm 10.7° 1020.3 hPa 2.4 m/s 128.3 mm 11.7° 1021.3 hPa 1.9 m/s 0.0 mm 11.6° 1022.6 hPa 0.9 m/s
14:00 11.5° 1020.0 hPa 2.3 m/s 14.7 mm 11.5° 1018.9 hPa 1.7 m/s 129.9 mm 11.1° 1019.8 hPa 2.5 m/s 0.2 mm 13.0° 1021.6 hPa 0.9 m/s
17:00 11.7° 1018.4 hPa 1.6 m/s 45.0 mm 12.1° 1018.0 hPa 0.9 m/s 132.9 mm 11.6° 1018.4 hPa 1.7 m/s 1.1 mm 13.3° 1020.7 hPa 1.4 m/s
20:00 11.3° 1018.0 hPa 2.2 m/s 45.5 mm 11.5° 1017.9 hPa 0.9 m/s 134.3 mm 11.3° 1018.0 hPa 2.5 m/s 1.0 mm 9.1° 1021.3 hPa 1.3 m/s
23:00 10.1° 1021.3 hPa 1.1 m/s 49.0 mm 10.1° 1021.3 hPa 1.1 m/s 49.0 mm
 07:25     18:54    Daglengte: 11:29 Donderdag 30 Sep
02:00 10.0° 1020.6 hPa 1.4 m/s 49.5 mm 10.0° 1020.6 hPa 1.4 m/s 49.5 mm
05:00 10.5° 1018.7 hPa 1.7 m/s 51.9 mm 10.5° 1018.7 hPa 1.7 m/s 51.9 mm
08:00 10.3° 1017.2 hPa 1.5 m/s 58.0 mm 10.3° 1017.2 hPa 1.5 m/s 58.0 mm
11:00 9.9° 1016.5 hPa 1.4 m/s 62.9 mm 9.9° 1016.5 hPa 1.4 m/s 62.9 mm
14:00 11.2° 1016.5 hPa 1.2 m/s 65.2 mm 11.2° 1016.5 hPa 1.2 m/s 65.2 mm
17:00 10.3° 1016.0 hPa 1.3 m/s 66.5 mm 10.3° 1016.0 hPa 1.3 m/s 66.5 mm
20:00 9.3° 1016.7 hPa 1.4 m/s 67.1 mm 9.3° 1016.7 hPa 1.4 m/s 67.1 mm
23:00 7.2° 1017.6 hPa 1.8 m/s 67.1 mm 7.2° 1017.6 hPa 1.8 m/s 67.1 mm
 07:28     18:51    Daglengte: 11:23 Vrijdag 01 Okt
02:00 8.4° 1018.2 hPa 2.9 m/s 67.2 mm 8.4° 1018.2 hPa 2.9 m/s 67.2 mm
05:00 9.2° 1017.3 hPa 2.5 m/s 68.6 mm 9.2° 1017.3 hPa 2.5 m/s 68.6 mm
08:00 9.7° 1017.3 hPa 3.5 m/s 69.2 mm 9.7° 1017.3 hPa 3.5 m/s 69.2 mm
11:00 9.8° 1017.5 hPa 2.8 m/s 69.7 mm 9.8° 1017.5 hPa 2.8 m/s 69.7 mm
14:00 10.3° 1016.7 hPa 3.7 m/s 70.5 mm 10.3° 1016.7 hPa 3.7 m/s 70.5 mm
17:00 10.4° 1015.4 hPa 5.1 m/s 74.0 mm 10.4° 1015.4 hPa 5.1 m/s 74.0 mm
20:00 10.0° 1015.4 hPa 4.5 m/s 76.2 mm 10.0° 1015.4 hPa 4.5 m/s 76.2 mm
23:00 10.2° 1014.4 hPa 3.8 m/s 78.7 mm 10.2° 1014.4 hPa 3.8 m/s 78.7 mm
 07:30     18:48    Daglengte: 11:18 Zaterdag 02 Okt
02:00 10.5° 1012.7 hPa 2.9 m/s 80.4 mm 10.5° 1012.7 hPa 2.9 m/s 80.4 mm
05:00 9.9° 1011.3 hPa 2.7 m/s 83.7 mm 9.9° 1011.3 hPa 2.7 m/s 83.7 mm
08:00 9.9° 1010.1 hPa 1.9 m/s 86.4 mm 9.9° 1010.1 hPa 1.9 m/s 86.4 mm
11:00 10.9° 1009.9 hPa 1.3 m/s 87.8 mm 10.9° 1009.9 hPa 1.3 m/s 87.8 mm
14:00 12.4° 1009.8 hPa 1.5 m/s 88.4 mm 12.4° 1009.8 hPa 1.5 m/s 88.4 mm
17:00 11.7° 1010.1 hPa 1.9 m/s 88.5 mm 11.7° 1010.1 hPa 1.9 m/s 88.5 mm
20:00 8.1° 1010.9 hPa 1.1 m/s 88.5 mm 8.1° 1010.9 hPa 1.1 m/s 88.5 mm
23:00 6.8° 1011.5 hPa 1.0 m/s 88.5 mm 6.8° 1011.5 hPa 1.0 m/s 88.5 mm
 07:32     18:45    Daglengte: 11:13 Zondag 03 Okt
02:00 5.8° 1012.1 hPa 1.1 m/s 88.5 mm 5.8° 1012.1 hPa 1.1 m/s 88.5 mm
05:00 5.1° 1011.8 hPa 1.1 m/s 88.5 mm 5.1° 1011.8 hPa 1.1 m/s 88.5 mm
08:00 5.8° 1012.0 hPa 1.4 m/s 88.5 mm 5.8° 1012.0 hPa 1.4 m/s 88.5 mm
11:00 9.6° 1010.5 hPa 4.5 m/s 88.7 mm 9.6° 1010.5 hPa 4.5 m/s 88.7 mm
14:00 8.5° 1008.7 hPa 5.8 m/s 90.0 mm 8.5° 1008.7 hPa 5.8 m/s 90.0 mm
17:00 9.5° 1005.0 hPa 6.7 m/s 93.5 mm 9.5° 1005.0 hPa 6.7 m/s 93.5 mm
20:00 10.2° 1001.7 hPa 6.3 m/s 100.2 mm 10.2° 1001.7 hPa 6.3 m/s 100.2 mm
 07:35     18:42    Daglengte: 11:07 Maandag 04 Okt
02:00 12.4° 992.1 hPa 5.7 m/s 118.9 mm 12.4° 992.1 hPa 5.7 m/s 118.9 mm
08:00 9.8° 992.4 hPa 4.4 m/s 120.1 mm 9.8° 992.4 hPa 4.4 m/s 120.1 mm
14:00 12.1° 993.2 hPa 4.3 m/s 120.1 mm 12.1° 993.2 hPa 4.3 m/s 120.1 mm
20:00 8.1° 990.9 hPa 1.9 m/s 120.1 mm 8.1° 990.9 hPa 1.9 m/s 120.1 mm
 07:37     18:39    Daglengte: 11:02 Dinsdag 05 Okt
02:00 8.1° 986.8 hPa 1.1 m/s 123.8 mm 8.1° 986.8 hPa 1.1 m/s 123.8 mm
08:00 7.0° 984.5 hPa 1.4 m/s 133.8 mm 7.0° 984.5 hPa 1.4 m/s 133.8 mm
14:00 10.2° 984.3 hPa 0.7 m/s 134.1 mm 10.2° 984.3 hPa 0.7 m/s 134.1 mm
20:00 7.5° 983.5 hPa 1.5 m/s 135.0 mm 7.5° 983.5 hPa 1.5 m/s 135.0 mm
 07:40     18:36    Daglengte: 10:56 Woensdag 06 Okt
02:00 4.6° 986.5 hPa 1.6 m/s 135.1 mm 4.6° 986.5 hPa 1.6 m/s 135.1 mm
08:00 3.7° 989.4 hPa 1.6 m/s 135.1 mm 3.7° 989.4 hPa 1.6 m/s 135.1 mm
14:00 11.7° 1006.7 hPa 2.2 m/s 3.8 mm
20:00 9.3° 1007.3 hPa 1.6 m/s 2.0 mm
 07:42     18:33    Daglengte: 10:51 Donderdag 07 Okt
02:00 7.6° 1008.7 hPa 0.9 m/s 0.4 mm
08:00 7.2° 1009.4 hPa 0.3 m/s 0.5 mm
14:00 11.9° 1009.6 hPa 1.6 m/s 1.3 mm
20:00 9.4° 1010.0 hPa 1.3 m/s 1.3 mm
 07:44     18:30    Daglengte: 10:46 Vrijdag 08 Okt
02:00 8.3° 1011.1 hPa 0.9 m/s 0.8 mm
08:00 7.4° 1011.1 hPa 0.6 m/s 0.8 mm
14:00 12.1° 1011.0 hPa 1.1 m/s 1.5 mm
20:00 9.1° 1011.5 hPa 0.9 m/s 1.3 mm
 07:47     18:27    Daglengte: 10:40 Zaterdag 09 Okt
02:00 7.7° 1012.4 hPa 0.6 m/s 0.7 mm
08:00 6.7° 1012.9 hPa 0.5 m/s 0.4 mm
14:00 11.5° 1013.6 hPa 1.1 m/s 0.5 mm
20:00 8.4° 1014.2 hPa 0.9 m/s 0.6 mm
 07:49     18:24    Daglengte: 10:35 Zondag 10 Okt
02:00 7.5° 1014.7 hPa 0.5 m/s 0.2 mm
08:00 6.9° 1014.0 hPa 0.4 m/s 0.6 mm
14:00 11.0° 1013.3 hPa 1.4 m/s 1.2 mm
20:00 8.7° 1012.9 hPa 1.3 m/s 1.1 mm
 07:52     18:21    Daglengte: 10:29 Maandag 11 Okt
02:00 7.5° 1013.1 hPa 0.8 m/s 0.1 mm
08:00 6.5° 1013.4 hPa 0.5 m/s 0.2 mm
14:00 10.9° 1013.7 hPa 1.0 m/s 0.2 mm
FMI Hirlam - 7.5 km EWN WRFDA - 12 km DWD ICON - 7 km GFS - 25 km Basiskaart






























































Updatetijd (Europe/Amsterdam) Resolutie Lengte Stap
FMI Hirlam 19:15, 01:15, 07:15, 13:15 7.5 km 49h 1h
EWN WRFDA 16:00, 22:00, 04:00, 10:00 12 km 73h 1h
DWD ICON 18:00, 00:00, 06:00, 12:00 7 km 75h 1h
GFS 20:00, 02:00, 08:00, 14:00 25 km 237h 3h
30+ mm
25-30 mm
20-25 mm
15-20 mm
10-15 mm
6-10 mm
4-6 mm
2-4 mm
1-2 mm
0.5-1 mm
0.2-0.5 mm
0.1-0.2 mm
30+ mm
25-30 mm
20-25 mm
15-20 mm
10-15 mm
6-10 mm
4-6 mm
2-4 mm
1-2 mm
0.5-1 mm
0.2-0.5 mm
0.1-0.2 mm
Sneeuwval
Natte sneeuw
Hagel
Vorst
30+ mm
25-30 mm
20-25 mm
15-20 mm
10-15 mm
6-10 mm
4-6 mm
2-4 mm
1-2 mm
0.5-1 mm
0.2-0.5 mm
0.1-0.2 mm
Sneeuwval
Natte sneeuw
Hagel
Vorst
Onweer
50 mm
40 mm
30 mm
26 mm
22 mm
18 mm
14 mm
10 mm
9 mm
8 mm
7 mm
6 mm
5 mm
4.5 mm
4 mm
3.5 mm
3 mm
2.5 mm
2 mm
1.5 mm
1 mm
0.8 mm
0.6 mm
0.4 mm
0.2 mm
0.05 mm
35°
30°
25°
20°
15°
10°
-5°
-10°
-15°
-20°
-25°
-30°
-35°
33> m/s
29 m/s
25 m/s
21 m/s
17 m/s
14 m/s
11 m/s
8 m/s
5 m/s
3 m/s
0 m/s
2600 J/kg
2400 J/kg
2200 J/kg
2000 J/kg
1800 J/kg
1600 J/kg
1400 J/kg
1200 J/kg
1000 J/kg
800 J/kg
600 J/kg
400 J/kg
200 J/kg
70 dBZ
65 dBZ
60 dBZ
55 dBZ
50 dBZ
45 dBZ
40 dBZ
35 dBZ
30 dBZ
25 dBZ
20 dBZ
15 dBZ
10 dBZ
5 dBZ
-1 K
-2 K
-3 K
-4 K
-5 K
-6 K
-7 K
-8 K
-9 K
950 m²/s²
900 m²/s²
850 m²/s²
800 m²/s²
750 m²/s²
700 m²/s²
650 m²/s²
600 m²/s²
550 m²/s²
500 m²/s²
450 m²/s²
400 m²/s²
350 m²/s²
300 m²/s²
250 m²/s²
200 m²/s²
150 m²/s²
100 m²/s²
46 m/s
44 m/s
42 m/s
40 m/s
38 m/s
36 m/s
34 m/s
32 m/s
30 m/s
28 m/s
26 m/s
24 m/s
22 m/s
20 m/s
16 m/s
12 m/s
8 m/s
4 m/s
30 m/s
28 m/s
26 m/s
24 m/s
22 m/s
20 m/s
18 m/s
16 m/s
14 m/s
12 m/s
10 m/s
8 m/s
6 m/s
4 m/s
2 m/s
3.0
2.8
2.6
2.4
2.2
2.0
1.8
1.6
1.4
1.2
1.0
0.8
0.6
0.4
0.2
15
14
13
12
11
10
9
8
7
6
5
4
3
2
1
90%
80%
70%
60%
50%
40%
30%
20%
10%
42
40
38
36
34
32
30
28
26
24
22
20
18
16
14
12
90+ cm
80-90 cm
70-80 cm
60-70 cm
50-60 cm
40-50 cm
30-40 cm
20-30 cm
10-20 cm
1-10 cm
Sneeuwval
Natte sneeuw
Regen
>120 mm
115 mm
110 mm
105 mm
100 mm
95 mm
90 mm
85 mm
80 mm
75 mm
70 mm
65 mm
60 mm
55 mm
50 mm
45 mm
45 mm
40 mm
35 mm
30 mm
25 mm
20 mm
15 mm
10 mm
5 mm
0.1 mm
960 hPa
880 hPa
800 hPa
720 hPa
640 hPa
560 hPa